This is the latest recevied weather packets stored in our database for station/object KB2M. If no packets are shown the sender has not sent any weather packets the latest 10 day(s).
| Time | Temp. | Humidity | Pressure | Rain* | Wind** | Luminosity | Snow |
|---|---|---|---|---|---|---|---|
| 1777680305 | 24.44° C | 80% | 1012.1 hPa | 0 mm | - | - | - |
| 1777679705 | 25° C | 77% | 1011.8 hPa | 0 mm | - | - | - |
| 1777679104 | 25° C | 78% | 1011.8 hPa | 0 mm | - | - | - |
| 1777678503 | 25° C | 78% | 1011.8 hPa | 0 mm | - | - | - |
| 1777677903 | 25° C | 78% | 1011.5 hPa | 0 mm | - | - | - |
| 1777677302 | 25° C | 80% | 1011.5 hPa | 0 mm | - | - | - |
| 1777676701 | 25° C | 80% | 1011.5 hPa | 0 mm | - | - | - |
| 1777676101 | 25° C | 80% | 1011.5 hPa | 0 mm | - | - | - |
| 1777675500 | 25° C | 80% | 1011.1 hPa | 0 mm | - | - | - |
| 1777674900 | 25° C | 80% | 1011.5 hPa | 0 mm | - | - | - |
| 1777674300 | 25° C | 81% | 1011.5 hPa | 0 mm | - | - | - |
| 1777673698 | 25° C | 82% | 1011.1 hPa | 0 mm | - | - | - |
| 1777673098 | 25° C | 81% | 1010.8 hPa | 0 mm | - | - | - |
| 1777672497 | 25.56° C | 79% | 1010.8 hPa | 0 mm | - | - | - |
| 1777671897 | 25.56° C | 79% | 1011.1 hPa | 0 mm | - | - | - |
| 1777671296 | 25.56° C | 78% | 1010.8 hPa | 0 mm | - | - | - |
| 1777670696 | 26.11° C | 74% | 1010.4 hPa | 0 mm | - | - | - |
| 1777670095 | 26.11° C | 73% | 1010.8 hPa | 0 mm | - | - | - |
| 1777669495 | 26.11° C | 74% | 1010.4 hPa | 0 mm | - | - | - |
| 1777668894 | 25.56° C | 76% | 1010.4 hPa | 0 mm | - | - | - |
| 1777668293 | 25.56° C | 74% | 1010.8 hPa | 0 mm | - | - | - |
| 1777667693 | 26.11° C | 76% | 1011.1 hPa | 0 mm | - | - | - |
| 1777667092 | 26.11° C | 77% | 1011.1 hPa | 0 mm | - | - | - |
| 1777666492 | 26.67° C | 73% | 1011.1 hPa | 0 mm | - | - | - |
| 1777665891 | 26.67° C | 69% | 1010.8 hPa | 0 mm | - | - | - |
* Rain latest hour (hover to see other rain measurements)
** Current wind speed in m/s (hover to see current wind gust speed)